Location: SE Lincoln, NE
(40.7805°N, 96.6275°W)
Time: 05:40:46
(UTC-05:00)

N. Korean satellite - Visible Passes

Search period start: 27 September 2021 00:00
Search period end: 07 October 2021 00:00
Orbit: 449 x 498 km, 97.3° (Epoch: 26 September)

Date Brightness Start Highest point End Pass type
(mag) Time Alt. Az. Time Alt. Az. Time Alt. Az.
28 Sep 7.2 06:33:49 10° NNE 06:37:22 61° E 06:40:56 10° S visible
29 Sep 9.0 06:06:25 10° NE 06:09:28 26° E 06:12:32 10° SSE visible
30 Sep 10.0 05:40:01 10° ENE 05:41:28 12° E 05:42:54 10° ESE visible
01 Oct 6.7 06:43:27 10° NNE 06:47:04 84° ESE 06:50:42 10° S visible
02 Oct 8.4 06:15:51 10° NNE 06:19:11 34° E 06:22:32 10° SSE visible
03 Oct 9.8 05:48:52 10° NE 05:51:10 16° E 05:53:28 10° SE visible
04 Oct 6.5 06:53:02 10° N 06:56:39 71° WNW 07:00:17 10° SSW visible
05 Oct 7.8 06:25:15 10° NNE 06:28:46 46° E 06:32:18 10° S visible
06 Oct 9.4 05:57:58 10° NE 06:00:46 21° E 06:03:34 10° SE visible
